Regional Weather Roundup
Issued by NWS Midland/Odessa, TX

Skip options and go directly to product.
Home | Oldest Version | Previous Version | Current Version | All | Text Only | Save Text | Print | Product List | Glossary Off

Skip product version selection by date and time.   

727
ASUS44 KMAF 232210
RWRMAF
MIDLAND AREA WEATHER ROUNDUP
NATIONAL WEATHER SERVICE MIDLAND TX
500 PM CDT TUE SEP 23 2014

...IN SOUTHWEST TEXAS AND SOUTHEAST NEW MEXICO...

CITY           SKY/WX    TMP DP  RH WIND       PRES   REMARKS
ALPINE         CLOUDY    78  53  42 SE6       30.22F
ANDREWS        FAIR      79  60  51 S8        30.13S
ARTESIA        NOT AVBL
BIG SPRING     PTSUNNY   84  60  44 S8        30.11F
CARLSBAD       MOSUNNY   83  62  49 S12       30.08F
DRYDEN           N/A     92  59  33 E16G24    30.04F
FORT STOCKTON  MOSUNNY   83  57  41 S12G20    30.09F
GUAD PASS      SUNNY     75  59  57 SW14      30.23F
HOBBS          MOSUNNY   77  59  53 S10       30.14F
MARFA          CLOUDY    75  52  43 SE5       30.21F
MIDLAND AIRPK  PTSUNNY   83  60  45 S9        30.10F
MIDLAND INTL   PTSUNNY   83  60  45 S13       30.10F
ODESSA         PTSUNNY   82  61  48 S14       30.11F
PECOS          PTSUNNY   85  55  36 CALM      30.06F
PRESIDIO       FAIR      86  53  31 NE3       30.04F
SEMINOLE       RAIN      71  63  74 E5        30.14F
SNYDER         PTSUNNY   79  66  64 SE7       30.11F
WINK           PTSUNNY   83  58  42 S5        30.07F
$$
...OTHER STATIONS IN TEXAS...

CITY           SKY/WX    TMP DP  RH WIND       PRES   REMARKS
ABILENE        PTSUNNY   85  62  46 SE7       30.08F
AMARILLO       CLOUDY    81  59  47 SW17G26   30.09F
AUSTIN         PTSUNNY   83  56  39 NE9       30.06F
BROWNSVILLE    MOSUNNY   88  72  58 NE10      29.97S
CORPUS CHRISTI PTSUNNY   85  70  60 E15       30.00F
DALLAS FTW     MOSUNNY   84  47  27 E8        30.08F
DEL RIO        SUNNY     91  61  36 SE8       29.99F
EL PASO        FAIR      82  57  42 VRB3      30.09F
HOUSTON INT    PTSUNNY   83  58  42 N10G17    30.05F
LUBBOCK        MOSUNNY   81  60  48 SW16      30.11F
SAN ANGELO     PTSUNNY   86  63  45 E14       30.06F
SAN ANTONIO    PTSUNNY   90  56  31 E13       30.04F
WACO           PTSUNNY   83  50  31 E3        30.08F
WICHITA FALLS  NOT AVBL
$$
...OTHER LOCATIONS IN NEW MEXICO...

CITY           SKY/WX    TMP DP  RH WIND       PRES   REMARKS
ALAMAGORDO     MOSUNNY   81  61  50 SE3       30.12F
ALBUQUERQUE    MOSUNNY   78  52  40 W7        30.17F
CANNON AFB     NOT AVBL
CLOVIS           N/A     77  57  50 S18       30.15F
HOLLOMAN AFB   MOSUNNY   81  62  52 CALM      30.10F
ROSWELL        MOSUNNY   79  60  52 S9        30.10F
RUIDOSO        PTSUNNY   64  55  72 SE12      30.32S
SANTA FE       SUNNY     80  48  32 W13G20    30.20F
TRUTH OR CONSE FAIR      78  57  48 S3        30.15F
TUCUMCARI      SUNNY     84  57  39 SW16      30.06F
$$

USA.gov is the U.S. government's official web portal to all federal, state and local government web resources and services.